Wetbulb
44.27 47.37 48.16 47.61 48.51 49.45 39.95 40.73 38.41 42.23 40.64 45.08 52.49 55.61 55.70 58.14 59.71 60.32 61.14 64.00 64.02 65.06 65.90 66.90 67.77 68.54 69.59 70.66 71.46 72.35 71.94 71.97 72.47 72.56 72.43 71.91 71.94 72.28 72.29 71.90 71.93 71.57 71.34 71.34
44.84 48.69 48.89 47.63 49.60 49.19 45.48 45.20 43.81 43.23 42.64 48.08 52.37 55.73 55.74 56.12 59.85 59.66 62.29 63.21 65.05 66.25 67.66 69.24 69.83 69.76 70.30 70.38 70.87 71.87 70.94 71.44 72.40 71.86 71.57 71.29 71.27 71.05 71.06 71.00 70.90 70.71 70.89 71.27
39.85 45.78 46.90 43.31 45.80 48.41 48.35 48.06 45.16 42.43 46.20 52.42 53.67 55.23 55.09 60.26 63.37 62.78 63.12 63.93 64.13 66.51 68.57 70.03 70.56 71.13 70.42 71.12 71.87 71.49 70.58 71.04 71.79 71.29 70.86 70.85 71.26 71.04 70.48 70.57 70.65 70.72 71.20 71.36
39.72 41.39 36.76 45.79 51.81 53.20 51.08 51.38 51.98 51.60 54.58 55.95 55.92 56.44 56.44 61.13 62.29 63.43 66.49 65.67 66.61 67.89 68.28 70.43 71.21 71.53 71.91 72.38 72.22 72.71 71.10 72.08 72.10 71.55 71.13 71.40 71.07 70.82 70.65 70.91 71.14 71.30 71.39 71.43
38.67 38.54 43.27 48.57 51.87 50.69 47.65 47.48 52.63 51.70 53.76 58.04 59.63 58.04 56.56 60.51 60.90 62.58 65.43 65.48 64.70 68.43 70.25 71.97 72.53 72.92 73.96 72.87 72.34 72.74 71.85 72.91 72.84 72.26 72.19 72.39 71.25 70.75 71.45 72.04 71.70 71.77 71.96 71.74
41.68 38.61 38.01 46.91 54.02 55.27 53.14 44.87 53.21 53.95 54.06 56.00 58.45 51.46 55.02 59.06 63.19 66.69 65.79 65.58 69.32 70.70 71.81 72.87 72.87 74.02 74.24 72.95 72.46 72.30 72.54 72.52 73.46 72.74 71.95 71.94 72.28 72.38 72.55 72.92 72.94 73.07 72.32 72.22
41.58 40.88 44.49 52.07 54.17 54.91 44.22 45.99 53.01 54.82 55.57 56.35 56.71 58.42 58.60 66.58 66.14 67.36 67.80 68.89 71.63 72.05 71.33 72.20 74.07 74.81 73.41 73.13 72.54 73.55 73.69 73.45 73.48 73.54 72.48 72.56 72.42 72.27 72.60 72.84 71.93 70.89 70.43 70.19
41.97 40.16 40.11 55.12 54.32 48.62 49.58 52.92 54.34 55.84 57.58 58.19 59.87 61.19 61.93 66.80 67.62 68.15 68.89 70.38 70.38 70.14 70.98 72.41 74.13 74.42 72.81 72.21 73.02 74.06 73.59 73.00 73.00 73.47 73.70 73.29 72.80 70.63 70.24 70.06 69.00 68.53 68.33 68.46
45.56 44.83 50.04 53.50 53.07 54.62 55.22 53.95 55.57 56.99 58.16 59.74 61.43 59.17 59.60 61.67 65.95 68.28 69.49 68.99 68.20 68.10 68.47 69.48 70.41 71.01 70.12 70.01 71.29 73.89 73.36 72.82 72.66 72.69 73.41 72.97 70.77 69.66 67.35 67.51 67.74 67.67 68.08 67.81
48.36 49.85 52.56 53.48 55.54 57.29 57.43 57.52 58.35 58.80 60.27 61.28 61.47 61.02 60.17 60.72 63.34 66.71 68.28 67.84 68.29 68.88 68.41 67.83 68.28 68.96 69.43 69.85 70.05 71.43 70.67 70.51 69.77 68.46 67.54 67.92 69.12 68.62 68.10 66.95 66.13 64.82 65.11 65.11
48.39 50.31 52.94 55.70 56.81 58.15 58.14 59.03 60.30 61.03 61.54 60.82 62.08 60.72 61.16 61.31 62.75 65.76 68.19 68.83 69.19 68.32 67.49 66.55 67.29 67.58 67.43 67.72 68.84 68.57 68.66 68.69 67.04 65.75 65.64 65.37 64.48 64.57 64.43 63.38 63.58 63.00 63.37 64.56
46.57 51.38 52.53 53.65 57.35 59.27 59.99 59.35 60.36 59.21 58.89 60.56 61.83 61.50 61.41 60.57 60.83 61.69 66.11 67.36 67.53 67.11 67.47 67.31 67.18 66.17 66.24 66.64 66.62 66.28 65.96 65.64 65.77 65.61 63.56 63.42 63.33 63.21 56.43 56.06 54.25 52.08 50.08 56.57
52.44 55.63 56.09 57.34 58.80 59.70 60.66 60.28 60.48 60.82 59.51 58.61 59.94 61.60 61.79 60.58 60.37 60.06 65.89 65.73 66.06 67.43 67.63 66.12 65.74 65.41 65.46 65.97 65.26 64.52 64.19 64.31 65.32 64.08 65.61 65.38 65.34 64.66 62.52 58.42 51.90 50.08 49.54 49.72
57.29 57.33 55.84 58.80 57.53 60.84 61.01 60.27 60.84 61.33 62.45 62.16 60.95 60.78 59.85 58.70 59.65 63.88 63.68 64.35 65.61 66.10 65.92 65.22 65.03 64.68 65.31 65.73 65.22 64.84 62.75 58.24 64.58 64.51 64.11 63.65 63.92 63.49 62.93 61.26 60.43 62.14 52.08 50.81
58.52 58.25 58.05 58.21 59.61 60.17 61.56 61.49 60.04 60.39 60.56 61.10 62.17 61.24 60.57 60.74 63.24 63.00 63.55 63.73 63.68 63.63 62.80 62.59 62.54 62.82 64.52 65.51 66.15 65.11 65.07 64.77 64.92 64.63 63.82 62.90 63.45 63.81 63.53 62.90 63.56 61.42 58.44 52.54
57.98 58.67 59.31 57.42 57.20 59.14 59.96 60.30 59.83 60.83 60.63 60.33 59.75 61.47 63.12 64.38 63.55 62.97 62.70 61.59 60.60 59.77 60.60 60.83 60.85 61.77 64.21 64.61 64.71 64.85 64.91 63.60 63.40 64.32 63.13 64.82 64.00 65.35 64.16 62.87 61.70 61.08 60.20 57.87
53.50 53.91 55.67 56.06 56.38 57.44 58.08 59.12 60.58 61.33 62.03 61.64 61.40 62.96 63.13 62.32 61.53 60.91 61.08 61.44 60.77 60.00 60.14 60.79 62.03 63.09 63.76 64.53 64.33 64.03 63.66 63.68 62.72 62.37 63.89 63.20 61.53 60.69 61.18 60.58 62.41 60.42 58.86 55.36
57.28 58.02 56.99 57.68 57.94 57.82 58.49 59.37 60.04 61.09 61.14 61.81 62.44 62.01 62.17 61.22 60.16 59.73 59.64 60.37 59.28 59.23 60.10 60.06 61.53 62.63 63.31 64.11 63.67 64.68 63.23 62.15 62.39 62.39 62.09 63.36 61.78 61.92 61.04 61.60 62.19 61.21 58.03 52.68
60.44 59.31 59.94 59.84 60.70 59.87 58.46 57.33 58.82 59.92 61.01 60.80 61.55 60.67 61.58 61.83 60.86 59.98 59.80 59.35 58.04 57.00 57.73 60.80 62.40 61.84 61.00 61.68 61.01 61.27 63.40 63.01 62.49 61.70 61.19 59.19 60.67 60.78 60.55 60.75 61.25 61.93 58.57 54.63
59.18 59.92 60.97 60.49 60.18 59.74 61.00 58.83 59.09 58.16 58.78 59.17 60.36 60.75 60.72 60.44 60.40 59.95 59.43 57.81 58.62 58.35 59.56 60.82 61.36 59.40 59.52 59.95 60.91 59.54 62.57 61.86 61.21 60.59 60.94 61.31 60.49 60.31 59.75 55.65 59.43 60.43 58.63 57.24
57.54 58.89 59.70 59.44 59.44 59.98 62.08 60.31 57.73 56.83 59.40 59.78 59.63 59.81 59.66 58.99 60.07 60.59 58.42 58.09 58.35 59.75 60.23 58.10 55.15 56.45 55.26 56.10 56.80 57.05 59.52 59.11 60.60 60.06 61.20 61.29 61.13 59.74 58.79 59.15 59.15 59.34 59.52 59.63
56.59 56.83 58.40 58.48 58.28 58.78 60.03 61.14 58.07 57.50 56.84 56.45 58.92 60.13 59.17 58.29 59.55 59.12 59.21 58.46 59.82 57.76 59.22 57.36 53.28 56.63 56.14 58.06 55.37 55.32 54.72 54.19 53.60 52.92 53.01 53.91 53.62 54.61 54.79 55.61 58.23 58.85 58.38 58.38
56.60 56.01 57.06 56.72 57.64 58.96 59.76 60.36 57.32 56.85 56.28 56.56 60.43 59.39 58.38 58.03 58.36 58.43 58.03 59.24 58.44 56.06 56.81 53.69 55.31 57.25 56.76 55.19 54.93 55.26 55.19 55.06 54.18 54.39 54.32 53.54 53.27 53.69 53.45 53.58 54.34 53.86 53.19 53.33
54.64 54.82 56.03 58.40 58.92 58.49 57.37 57.96 59.13 60.17 61.47 61.53 61.28 61.06 59.34 58.18 56.25 57.32 59.09 55.68 52.53 53.83 53.58 53.21 53.95 55.46 56.36 55.59 55.47 54.90 54.05 53.56 53.88 53.45 54.53 52.33 54.50 54.25 53.88 53.30 54.62 54.40 54.08 53.63
55.43 56.22 56.85 55.25 55.77 56.71 57.88 58.44 60.81 61.28 62.04 61.73 61.11 60.87 59.61 57.69 56.68 54.25 53.70 52.72 52.25 53.50 53.40 53.61 54.57 54.12 55.46 56.79 55.62 56.20 54.89 53.90 54.27 54.39 54.11 53.83 53.58 54.18 53.86 53.88 53.44 52.90 51.91 51.66
53.90 55.77 56.23 55.91 56.13 58.34 59.18 56.51 56.99 58.34 59.80 59.88 60.08 59.92 57.75 55.42 55.19 54.28 53.11 52.58 53.29 53.32 52.59 52.04 51.83 51.94 54.66 56.75 56.02 56.85 55.96 55.55 54.14 52.27 51.36 51.02 50.81 51.05 50.65 50.07 49.32 49.28 48.52 48.34
55.22 51.87 54.29 53.36 54.74 57.63 58.78 57.84 55.40 55.46 57.31 58.65 58.11 58.53 56.24 54.95 54.83 54.51 52.84 53.42 53.41 54.28 54.34 53.92 52.81 55.31 56.76 54.57 54.35 53.19 52.72 52.11 49.10 50.24 48.79 48.65 48.41 47.63 47.35 47.28 47.16 46.84 45.24 43.46
MSLP
1005.46 1004.68 1004.12 1003.86 1003.42 1003.07 1003.50 1003.25 1003.83 1002.45 1001.81 1000.36 999.74 1000.01 999.59 997.86 996.80 997.02 997.71 999.04 1000.09 999.39 999.97 1000.62 1001.22 1001.92 1002.34 1002.74 1003.46 1004.10 1004.84 1005.48 1005.98 1006.44 1006.99 1007.57 1008.16 1008.58 1008.96 1009.45 1009.86 1010.19 1010.72 1011.18
1005.76 1005.09 1004.75 1004.22 1003.24 1002.95 1002.67 1002.34 1002.14 1001.88 1001.29 1000.34 998.65 998.50 999.04 998.46 997.74 997.91 998.49 998.46 999.24 999.18 999.58 1000.47 1000.96 1001.49 1002.19 1002.70 1003.18 1003.89 1004.61 1005.20 1005.74 1006.43 1007.02 1007.57 1007.97 1008.36 1008.81 1009.27 1009.80 1010.24 1010.55 1010.74
1007.25 1006.34 1005.25 1004.28 1003.34 1002.96 1002.77 1002.73 1002.70 1002.90 1002.66 1000.90 999.82 998.79 997.74 997.25 997.38 998.16 999.13 998.59 998.97 998.99 999.45 999.85 1000.68 1001.09 1001.79 1002.58 1003.16 1003.79 1004.43 1005.08 1005.73 1006.40 1006.89 1007.30 1007.62 1008.08 1008.60 1009.11 1009.52 1009.92 1010.29 1010.70
1008.44 1007.38 1005.89 1003.83 1003.00 1002.41 1002.82 1003.54 1003.76 1003.64 1003.02 1002.37 1001.47 999.77 998.26 996.25 996.46 997.05 998.17 998.89 998.57 998.92 999.67 999.66 1000.31 1001.12 1001.88 1002.55 1003.11 1003.64 1004.29 1004.95 1005.59 1006.20 1006.61 1007.01 1007.36 1007.70 1008.15 1008.54 1008.84 1009.15 1009.55 1009.96
1008.84 1008.01 1005.83 1003.71 1002.94 1003.33 1003.46 1004.22 1004.15 1004.18 1003.68 1002.69 1001.16 999.65 998.55 997.64 995.78 995.73 996.28 997.62 998.32 998.45 999.24 999.66 1000.13 1000.99 1001.84 1002.80 1003.27 1003.68 1004.10 1004.49 1005.06 1005.70 1006.19 1006.58 1006.99 1007.25 1007.47 1007.75 1007.96 1008.12 1008.29 1008.88
1009.40 1008.59 1006.86 1004.76 1003.60 1003.47 1003.62 1003.84 1003.92 1004.20 1003.96 1003.46 1002.19 1001.82 998.71 997.63 997.04 996.99 997.11 997.03 997.63 998.36 998.91 999.61 1000.23 1000.90 1001.85 1002.74 1003.27 1003.61 1003.74 1004.08 1004.61 1005.13 1005.53 1005.94 1006.26 1006.53 1006.57 1006.85 1007.15 1007.25 1007.58 1007.54
1009.29 1008.48 1006.55 1004.85 1004.34 1003.94 1004.34 1004.17 1003.95 1004.18 1003.59 1003.60 1003.09 1001.88 999.55 998.90 997.72 997.48 997.68 998.61 998.48 998.98 999.25 999.54 1000.09 1000.80 1001.81 1002.63 1003.01 1002.84 1003.09 1003.59 1004.23 1004.61 1004.94 1005.22 1005.66 1005.95 1006.20 1006.57 1006.95 1007.45 1007.71 1007.53
1008.97 1008.15 1006.61 1005.23 1004.83 1004.69 1004.38 1003.64 1003.63 1004.03 1003.15 1003.05 1002.46 1000.16 998.68 998.30 997.90 998.10 998.56 999.17 999.30 999.59 999.82 1000.03 1000.46 1001.12 1002.09 1002.70 1002.80 1002.95 1003.39 1003.71 1004.11 1004.48 1004.84 1005.11 1005.51 1005.88 1006.15 1006.58 1006.97 1007.19 1007.63 1007.90
1008.22 1007.02 1005.61 1004.98 1004.88 1004.15 1003.84 1004.07 1003.85 1003.79 1002.85 1002.68 1001.67 1001.33 1001.26 1001.69 998.51 997.66 999.52 999.59 1000.10 1000.51 1000.78 1001.21 1001.44 1001.81 1002.48 1002.98 1002.83 1002.68 1003.07 1003.60 1004.12 1004.54 1004.92 1005.14 1005.50 1005.87 1006.27 1006.63 1006.77 1007.03 1007.34 1007.48
1007.69 1006.01 1005.53 1004.77 1004.05 1003.72 1003.73 1004.05 1003.78 1003.14 1002.72 1002.76 1001.74 1002.48 1002.08 1002.39 1002.33 999.41 999.23 999.66 1000.44 1000.92 1001.65 1002.32 1002.52 1002.72 1003.04 1003.20 1003.20 1003.01 1003.30 1003.71 1004.10 1004.50 1004.83 1005.06 1005.35 1005.57 1005.91 1006.22 1006.70 1007.02 1007.27 1007.53
1006.88 1005.79 1004.71 1003.78 1003.37 1003.52 1003.80 1003.67 1003.38 1002.95 1002.50 1002.59 1001.81 1001.99 1002.19 1003.33 1003.71 1002.66 999.58 1000.30 1000.72 1000.62 1001.60 1002.60 1003.07 1003.26 1003.34 1003.62 1003.66 1003.77 1003.95 1004.30 1004.68 1004.94 1005.23 1005.48 1005.71 1005.94 1006.15 1006.52 1006.68 1006.89 1007.33 1007.58
1005.54 1004.30 1004.43 1003.28 1003.38 1003.09 1003.03 1002.88 1003.10 1002.57 1002.57 1002.31 1002.17 1001.76 1000.26 1002.05 1003.49 1004.59 1000.53 1000.40 1000.71 1001.05 1001.72 1002.58 1003.04 1003.26 1003.67 1003.79 1003.78 1004.23 1004.78 1005.09 1005.23 1005.40 1005.64 1005.80 1006.00 1006.21 1006.30 1006.52 1006.74 1006.93 1007.32 1007.66
1003.83 1003.11 1003.32 1002.90 1002.75 1002.10 1002.25 1002.32 1002.60 1002.51 1002.31 1001.99 1001.69 1000.78 999.92 1002.68 1003.96 1005.88 1004.05 1001.62 1001.33 1001.87 1002.19 1003.02 1003.66 1003.76 1003.86 1003.88 1004.07 1004.40 1004.76 1005.14 1005.48 1005.60 1005.83 1006.11 1006.33 1006.47 1006.55 1006.92 1007.04 1007.36 1007.56 1007.77
1002.88 1003.60 1003.02 1002.78 1001.94 1001.47 1002.08 1001.78 1001.78 1002.11 1002.50 1002.30 1002.38 1002.18 1003.01 1004.48 1005.92 1005.54 1004.08 1003.14 1002.28 1002.40 1002.99 1003.08 1003.72 1003.95 1003.87 1003.84 1004.25 1004.61 1004.89 1005.08 1005.36 1005.69 1005.96 1006.19 1006.32 1006.48 1006.59 1006.84 1007.13 1007.58 1007.88 1007.90
1002.34 1002.66 1002.29 1002.46 1002.14 1002.37 1002.05 1002.02 1001.52 1001.26 1001.81 1002.42 1001.97 1002.91 1003.97 1005.62 1005.23 1004.56 1003.94 1003.18 1002.85 1003.18 1003.40 1003.15 1004.06 1004.13 1004.17 1004.17 1004.29 1004.84 1005.06 1005.10 1005.36 1005.69 1005.92 1006.06 1006.25 1006.34 1006.45 1006.63 1006.90 1007.36 1008.00 1008.26
1001.33 1002.17 1002.14 1002.19 1001.73 1001.45 1002.19 1002.64 1002.15 1000.72 1000.68 1001.38 1002.36 1002.69 1003.12 1003.40 1003.53 1003.86 1003.92 1003.82 1003.68 1003.70 1003.51 1003.80 1003.97 1003.90 1003.86 1004.22 1004.27 1004.97 1005.30 1005.33 1005.44 1005.66 1005.89 1005.98 1006.17 1006.23 1006.52 1006.74 1007.07 1007.48 1007.87 1008.22
1002.22 1002.55 1002.06 1001.98 1001.59 1000.90 1001.09 1001.93 1001.78 1001.24 1001.53 1001.46 1001.77 1002.27 1002.25 1003.28 1003.88 1004.35 1004.44 1004.16 1003.99 1004.08 1004.19 1004.20 1004.19 1003.95 1003.96 1003.86 1004.13 1005.02 1005.32 1005.38 1005.50 1005.82 1005.87 1005.96 1006.15 1006.46 1006.53 1006.72 1007.01 1007.53 1007.88 1008.23
1002.14 1001.83 1001.53 1001.54 1001.29 1001.39 1000.99 1000.98 1001.74 1001.10 1001.03 1001.54 1001.40 1002.03 1002.57 1002.99 1003.60 1004.02 1004.79 1004.59 1004.67 1004.62 1004.47 1004.61 1004.20 1004.23 1004.71 1004.40 1004.47 1004.87 1005.18 1005.34 1005.49 1005.84 1006.05 1006.13 1006.27 1006.43 1006.70 1006.82 1006.93 1007.27 1007.86 1008.34
1001.08 1000.61 1000.66 1001.44 1001.59 1001.56 1001.74 1001.67 1001.30 1001.29 1001.14 1001.02 1001.54 1002.08 1002.44 1002.56 1003.10 1004.00 1004.65 1004.97 1004.53 1004.38 1004.57 1004.47 1003.99 1004.39 1004.97 1005.16 1005.00 1004.89 1005.16 1005.36 1005.54 1005.90 1006.21 1006.30 1006.42 1006.61 1006.82 1006.90 1006.95 1007.23 1007.75 1008.22
1001.45 1000.97 1000.95 1000.99 1001.55 1001.77 1001.35 1001.48 1001.72 1001.41 1001.22 1001.37 1001.82 1002.15 1002.59 1002.86 1003.15 1003.72 1004.20 1004.47 1004.56 1004.45 1004.66 1004.77 1005.07 1005.08 1004.90 1004.61 1004.68 1004.89 1005.60 1005.65 1005.62 1005.92 1006.39 1006.63 1006.79 1006.87 1006.91 1007.01 1007.15 1007.25 1007.51 1007.80
1002.21 1002.12 1001.76 1001.58 1001.37 1001.57 1001.82 1001.54 1001.79 1001.99 1001.55 1001.58 1001.44 1002.12 1002.45 1002.71 1003.11 1003.63 1004.26 1004.66 1004.83 1005.15 1005.36 1005.47 1005.45 1005.68 1004.72 1004.44 1004.62 1005.03 1005.62 1005.71 1006.04 1006.15 1006.53 1006.82 1007.03 1007.16 1007.15 1007.22 1007.26 1007.34 1007.48 1007.62
1002.85 1002.58 1002.36 1002.17 1001.80 1001.63 1001.21 1001.20 1001.28 1001.39 1001.59 1001.66 1001.81 1002.04 1002.89 1003.34 1003.74 1004.19 1003.79 1004.42 1005.11 1005.66 1005.88 1006.06 1005.46 1005.03 1004.26 1004.31 1005.14 1005.65 1006.03 1006.14 1006.32 1006.58 1006.88 1007.10 1007.39 1007.47 1007.38 1007.41 1007.61 1007.78 1007.58 1007.43
1003.02 1002.78 1002.56 1002.14 1001.94 1001.53 1000.75 1000.54 1000.51 1000.60 1001.71 1001.96 1002.01 1002.30 1002.95 1003.72 1004.07 1004.56 1004.77 1004.97 1005.32 1005.22 1005.47 1005.43 1005.29 1004.93 1004.91 1005.16 1005.79 1006.23 1006.43 1006.62 1006.91 1007.05 1007.26 1007.53 1007.61 1007.59 1007.64 1007.85 1008.04 1008.17 1008.05 1007.96
1003.53 1002.99 1002.88 1002.83 1002.34 1001.80 1001.26 1000.79 1000.85 1001.33 1001.60 1001.68 1001.91 1002.31 1002.83 1003.52 1004.32 1003.86 1004.15 1004.35 1004.59 1004.75 1005.13 1005.56 1005.55 1005.35 1005.68 1006.03 1006.42 1006.51 1006.83 1007.34 1007.62 1007.58 1007.61 1007.91 1008.18 1008.19 1008.14 1008.42 1008.68 1008.82 1008.86 1008.79
1003.41 1003.35 1003.47 1003.35 1003.02 1002.56 1001.70 1001.25 1000.87 1000.90 1001.16 1001.39 1002.11 1002.08 1002.05 1002.42 1003.14 1003.67 1003.50 1004.40 1004.85 1005.29 1005.57 1005.34 1005.55 1005.67 1006.07 1006.67 1006.92 1006.90 1007.73 1008.15 1008.27 1008.40 1008.78 1009.03 1009.24 1009.49 1009.69 1009.80 1010.00 1009.97 1009.99 1010.05
1002.91 1002.74 1002.78 1002.55 1002.03 1001.86 1001.72 1001.64 1001.50 1001.58 1001.76 1002.26 1002.73 1002.77 1002.62 1002.75 1003.32 1003.82 1004.19 1004.70 1004.95 1005.17 1005.60 1005.66 1005.96 1006.32 1006.38 1006.70 1007.22 1007.66 1008.12 1008.40 1008.98 1009.28 1009.21 1009.74 1010.36 1010.69 1010.78 1010.91 1010.91 1010.86 1011.01 1011.07
1002.36 1002.36 1002.58 1002.73 1002.46 1002.26 1002.01 1002.14 1002.40 1002.43 1002.31 1002.34 1002.32 1002.20 1002.32 1002.84 1003.32 1003.58 1004.00 1004.68 1004.83 1005.16 1005.48 1005.78 1006.24 1006.65 1006.94 1007.36 1007.91 1008.44 1008.84 1009.23 1009.28 1009.71 1010.55 1010.58 1010.32 1011.24 1011.49 1011.57 1011.70 1011.74 1011.76 1011.76
Wind_Speed
5 2 4 4 5 9 3 9 6 10 9 9 9 8 7 4 10 13 7 17 12 11 10 8 8 8 8 10 10 11 10 9 9 8 6 6 6 6 6 6 6 7 6 5
7 5 7 6 12 8 5 5 5 6 9 8 12 7 8 9 18 12 10 12 12 12 14 12 13 12 11 10 9 10 9 10 7 7 7 7 6 6 6 6 5 5 5 6
6 4 7 8 3 3 5 3 6 6 7 11 7 9 10 7 12 8 5 10 9 13 13 12 12 12 13 11 7 8 8 7 7 7 8 7 7 7 7 7 6 6 6 5
3 5 7 7 5 8 5 9 8 6 16 14 12 16 11 11 12 11 7 3 7 6 5 7 8 8 8 8 9 8 8 7 7 8 8 7 7 7 6 5 7 6 6 7
4 5 7 9 3 5 6 1 12 4 13 17 21 6 5 11 7 12 12 10 6 7 7 7 11 9 10 7 7 7 8 8 8 9 8 8 9 8 6 7 7 7 7 9
2 3 6 6 4 4 4 8 10 9 8 12 14 7 9 10 3 6 5 6 8 5 8 10 8 11 11 8 8 8 8 9 8 9 10 9 8 9 7 6 8 6 6 6
3 5 8 6 5 5 7 8 5 3 10 3 7 8 13 7 5 7 9 7 9 9 8 7 10 11 9 8 10 13 12 10 9 9 9 8 7 5 6 7 5 5 5 5
2 3 8 2 2 5 3 7 2 6 10 3 13 22 16 10 13 14 13 9 9 11 10 9 8 9 8 5 3 3 4 5 6 8 6 6 7 3 3 5 6 5 4 4
8 8 4 4 7 8 5 8 10 8 8 4 5 12 17 16 7 17 14 11 8 11 12 10 9 9 9 2 2 6 7 6 6 6 5 5 6 5 3 4 5 5 5 4
2 6 6 10 8 8 4 8 11 9 13 6 5 6 10 13 15 6 13 13 11 13 12 10 7 8 6 5 4 7 7 6 5 6 5 5 4 5 5 5 4 3 3 3
6 9 8 10 4 2 10 13 11 13 11 9 6 8 6 11 18 15 11 9 9 12 11 8 7 7 6 6 6 6 6 5 5 3 4 4 3 1 2 2 3 4 3 3
8 11 8 10 2 4 7 5 1 3 4 3 2 7 13 10 13 24 4 9 10 10 12 9 8 7 6 6 7 7 6 4 3 3 3 3 4 2 2 2 2 3 6 3
8 5 10 6 9 8 4 5 5 8 8 1 2 6 12 7 22 25 10 7 9 10 10 8 7 7 5 6 7 6 6 4 4 3 3 3 2 3 2 3 6 5 4 4
12 3 5 8 8 5 5 9 6 4 6 9 8 10 12 15 24 18 1 4 8 10 9 8 7 6 4 5 5 5 6 6 4 3 4 3 3 3 2 3 2 1 6 3
13 9 5 3 7 7 4 4 9 11 10 9 4 5 10 16 10 5 3 5 7 8 6 8 7 5 4 4 5 4 4 4 4 4 3 2 2 2 3 3 3 3 1 3
9 3 5 7 11 9 0 3 4 9 8 5 10 14 14 10 6 5 4 3 6 5 6 6 5 3 5 4 4 4 4 6 4 3 3 1 2 3 3 3 3 2 3 2
4 4 7 9 9 12 4 7 4 8 6 9 9 5 9 9 8 5 4 5 5 5 5 4 4 3 3 4 5 4 3 3 5 2 1 3 3 3 2 3 3 4 3 1
6 5 3 6 5 6 8 5 5 6 10 7 9 8 7 10 10 8 5 5 5 4 3 3 3 4 5 3 4 5 4 4 3 3 3 3 3 2 1 1 2 4 2 1
8 7 7 7 6 6 3 4 8 6 7 9 10 7 5 6 11 8 7 6 5 4 1 1 4 4 2 3 4 2 4 4 4 3 2 3 3 2 2 2 3 4 4 3
12 10 10 10 8 6 7 6 7 6 6 8 7 6 8 7 8 7 5 6 5 3 1 2 3 2 2 3 4 3 3 4 4 4 2 2 3 3 2 2 3 3 4 4
7 8 8 9 9 7 5 4 6 7 8 8 11 9 8 8 8 9 7 5 1 2 3 5 3 2 2 2 1 2 4 4 4 4 4 4 4 3 2 1 1 2 1 1
6 8 8 8 7 7 7 6 8 7 5 6 7 8 7 6 7 5 5 7 4 5 3 1 2 4 4 9 6 7 6 6 5 5 5 5 5 4 3 1 2 3 2 2
5 6 7 8 8 10 9 7 7 6 3 4 6 8 6 5 5 5 4 4 5 6 5 3 5 10 12 7 6 6 6 6 6 5 4 4 4 5 5 5 5 4 4 4
4 6 6 4 7 7 8 1 8 8 6 3 7 9 9 6 2 2 5 8 9 8 6 4 5 9 9 5 5 5 6 5 5 5 5 7 5 5 5 6 8 8 9 10
4 3 4 1 4 4 3 3 9 9 9 7 1 2 7 4 6 4 5 4 9 7 5 6 6 10 6 5 4 5 6 5 6 9 9 9 9 9 9 9 9 8 8 8
5 2 3 3 3 2 1 2 3 3 4 5 4 4 4 4 5 5 5 6 5 7 3 2 3 5 5 4 5 6 8 10 10 9 11 10 10 9 9 8 8 8 7 7
4 2 2 2 3 2 2 3 4 3 3 3 3 3 6 5 6 7 7 5 4 4 3 1 2 3 6 7 9 9 8 8 10 10 8 7 10 7 6 6 6 5 5 6
Wind_Direction
209 219 66 320 332 324 225 243 169 259 209 223 205 186 249 196 152 180 142 289 230 164 164 162 151 159 163 158 163 166 166 166 180 174 163 158 161 158 169 165 181 175 175 196
315 36 50 315 305 297 292 282 269 267 286 235 235 166 185 193 203 206 209 185 210 173 165 170 172 168 164 162 157 157 163 174 164 152 155 163 169 167 169 171 176 174 190 192
274 349 356 324 261 351 273 267 303 32 298 330 278 216 188 112 103 89 136 221 189 179 178 162 173 167 167 164 143 151 159 151 158 154 162 172 172 169 176 175 171 187 199 204
227 15 261 236 274 250 231 72 48 19 357 340 328 294 305 153 139 125 117 337 193 169 185 158 137 143 134 147 151 149 155 155 157 158 170 168 172 182 173 170 183 183 188 197
163 195 286 311 355 33 35 55 62 8 348 334 336 306 287 294 202 158 150 167 189 184 159 144 151 145 140 142 150 152 158 162 164 160 165 174 180 182 177 174 182 185 179 187
131 202 243 245 325 331 324 269 38 23 341 318 338 346 266 225 245 113 125 118 125 156 143 146 146 144 145 160 162 173 173 176 161 167 178 178 178 187 189 185 207 203 200 206
207 235 272 221 260 298 200 259 28 348 284 293 298 241 266 287 107 100 105 98 90 88 107 141 142 147 152 152 180 195 184 177 170 181 186 182 180 179 190 192 175 196 233 195
150 193 288 73 267 226 242 294 239 207 250 263 285 311 228 186 145 122 119 106 92 89 79 76 100 114 111 109 303 174 152 174 159 178 186 173 177 148 151 158 178 196 215 237
178 211 234 221 236 241 231 245 280 257 251 181 24 5 30 341 157 135 140 116 92 93 83 65 70 93 98 72 11 168 147 162 167 141 145 150 153 171 175 191 197 208 208 202
45 254 242 283 266 238 229 256 281 287 279 249 146 69 23 6 321 142 131 118 127 114 104 97 90 84 93 82 65 85 100 109 116 134 146 156 166 172 184 184 207 222 210 196
266 275 283 275 230 257 287 279 272 278 262 246 165 119 71 15 350 287 117 122 127 114 111 108 98 89 89 84 75 77 80 97 105 122 145 134 100 153 128 87 164 164 208 198
226 232 219 272 257 258 261 323 309 325 275 344 311 170 72 14 307 315 135 137 127 120 123 124 117 107 96 99 99 97 84 87 132 139 144 144 151 167 247 287 295 331 13 45
229 271 223 244 268 245 261 324 9 303 285 228 326 101 92 341 281 302 293 82 101 115 110 111 108 108 116 105 101 103 111 93 94 103 154 154 181 185 188 42 79 58 53 88
246 4 277 200 244 224 220 295 331 308 297 336 92 99 130 235 267 236 136 98 99 104 112 111 108 108 111 118 105 110 106 107 108 111 115 123 146 174 170 152 175 199 45 30
250 203 219 341 306 272 154 350 328 282 233 243 274 192 166 230 203 152 145 94 94 103 113 109 113 92 47 60 104 140 139 129 125 115 113 129 131 125 122 131 126 116 110 54
233 143 263 268 271 284 334 102 321 354 223 216 244 221 199 177 138 136 136 127 111 115 109 106 104 113 91 64 98 123 125 137 123 130 132 144 78 115 110 112 120 160 159 178
105 250 257 261 247 271 271 159 228 109 85 65 80 76 124 135 120 113 129 133 112 116 133 129 155 67 43 52 76 142 136 135 120 94 126 106 109 120 139 151 150 156 158 125
191 213 250 231 233 256 274 182 198 132 125 145 105 108 147 146 141 136 157 141 120 114 151 162 111 66 14 44 120 153 147 151 125 122 124 122 99 132 158 218 190 155 132 100
30 35 2 31 16 44 280 177 190 176 162 141 144 150 166 143 142 153 154 144 127 103 327 61 86 61 340 264 101 113 145 129 114 110 120 113 103 97 104 100 93 131 145 169
17 16 10 13 22 20 339 186 192 200 168 142 126 131 136 139 144 140 139 147 169 164 169 153 93 88 151 168 98 97 136 143 146 126 144 122 113 117 123 103 111 129 179 201
8 356 359 1 352 13 344 242 176 199 194 171 149 152 154 148 136 134 126 120 181 140 107 78 77 215 177 167 59 90 141 94 115 117 117 118 126 124 117 97 118 125 114 165
349 349 342 336 335 323 298 296 194 191 184 118 115 123 137 128 121 145 133 147 165 159 129 143 296 311 98 107 97 88 87 91 83 82 81 83 81 77 54 29 6 34 356 303
325 321 314 329 322 296 297 297 180 158 123 138 141 136 144 153 141 131 141 185 153 148 133 125 32 55 58 77 92 97 85 82 79 84 114 114 110 99 84 74 74 61 35 15
287 303 311 325 315 321 316 262 136 125 128 167 159 151 147 124 61 106 132 152 142 123 129 135 91 81 87 87 98 96 84 78 68 47 52 68 55 67 66 52 52 44 36 27
246 236 176 342 314 303 284 162 130 118 123 94 107 110 122 145 145 198 125 134 136 126 134 138 114 84 75 67 81 94 59 64 80 70 61 60 57 60 55 58 52 47 45 35
293 240 175 220 243 323 347 6 107 104 133 153 159 152 154 140 128 134 133 143 138 123 129 118 70 63 68 78 76 95 108 100 72 70 86 80 65 58 56 51 43 45 39 33
305 138 116 45 339 22 98 111 111 108 117 133 125 91 159 137 145 145 133 145 136 123 85 86 112 93 95 90 85 86 89 88 86 98 70 77 85 79 66 62 54 49 51 48